CW3224 Weather Reports


time (UTC)temp
C
wind
direction
speed
KPH
gust
KPH
rain 1hr
cm
rain 24hr
cm
rain mn
cm
humidity
%
barometer
mb
20260503184625 10 35 3.2 11.3 0.00 0.13 0.00 55 1006.1
20260503183625 11 28 3.2 11.3 0.00 0.13 0.00 55 1006.0
20260503182625 11 23 4.8 12.9 0.00 0.13 0.00 54 1006.0
20260503181625 11 356 4.8 17.7 0.00 0.13 0.00 53 1006.0
20260503180624 11 15 4.8 14.5 0.00 0.13 0.00 54 1006.0
20260503175626 10 2 4.8 16.1 0.00 0.13 0.00 55 1006.0
20260503174625 10 14 8.0 19.3 0.00 0.13 0.00 56 1006.0
20260503173624 10 340 4.8 12.9 0.00 0.13 0.00 58 1006.1
20260503172623 10 332 4.8 11.3 0.00 0.13 0.00 59 1006.4
20260503172107 10 143 4.8 12.9 0.00 0.13 0.00 59 1006.4
20260503170624 10 310 6.4 24.1 0.00 0.13 0.00 59 1006.0
20260503131014 6 18 4.8 11.3 0.00 0.13 0.00 84 1006.9
20260503110534 3 85 0.0 3.2 0.00 0.56 0.00 92 1007.1
20260503080517 4 87 0.0 0.0 0.00 0.61 0.00 91 1008.1
20260503072505 4 87 0.0 0.0 0.00 0.61 0.00 91 1008.2
20260503071929 4 87 0.0 0.0 0.00 0.61 0.00 91 1008.6
20260503070450 4 87 0.0 0.0 0.00 0.61 0.00 91 1008.6
20260503054439 5 87 0.0 0.0 0.00 0.61 0.00 90 1009.5
20260503053440 5 87 0.0 0.0 0.00 0.61 0.00 90 1009.5
20260503052437 5 87 0.0 0.0 0.00 0.61 0.00 91 1009.7
20260503051917 5 87 0.0 0.0 0.00 0.61 0.00 90 1009.8
20260503050437 5 87 0.0 0.0 0.00 0.61 0.00 90 1009.8
20260503045435 5 87 0.0 0.0 0.00 0.61 0.00 90 1009.9
20260503044435 5 87 0.0 0.0 0.00 0.61 0.00 90 1010.2
20260503043435 5 87 0.0 0.0 0.00 0.61 0.00 90 1010.2
20260503042436 5 87 0.0 0.0 0.00 0.61 0.00 90 1010.3
20260503041427 5 87 0.0 0.0 0.00 0.61 0.00 90 1010.3
20260503040425 6 87 0.0 0.0 0.00 0.61 0.00 90 1010.3
20260503035425 6 87 0.0 0.0 0.00 0.61 0.61 90 1010.3
20260503034426 6 87 0.0 0.0 0.00 0.61 0.61 90 1010.5
20260503033425 6 87 0.0 0.0 0.00 0.61 0.61 90 1010.5
20260503032426 6 87 0.0 0.0 0.00 0.61 0.61 90 1010.6
20260503031421 6 87 0.0 0.0 0.00 0.61 0.61 90 1010.3
20260503030852 6 87 0.0 0.0 0.00 0.61 0.61 90 1010.3
20260503025421 6 87 0.0 0.0 0.00 0.61 0.61 90 1010.3
20260503025340 6 87 0.0 0.0 0.00 0.61 0.61 90 1010.3
20260503023421 7 87 0.0 0.0 0.00 0.61 0.61 90 1010.3
20260503022415 7 87 0.0 0.0 0.00 0.61 0.61 90 1010.5
20260503021415 7 87 0.0 0.0 0.00 0.61 0.61 90 1010.6
20260503020902 7 87 0.0 0.0 0.00 0.61 0.61 90 1010.6
20260503015411 7 87 0.0 0.0 0.03 0.61 0.61 90 1010.7
20260503014409 7 87 0.0 0.0 0.03 0.61 0.61 90 1010.7
20260503013846 8 87 0.0 0.0 0.03 0.61 0.61 90 1010.7
20260503012409 8 87 0.0 0.0 0.03 0.61 0.61 90 1010.6
20260503011408 8 87 0.0 0.0 0.03 0.61 0.61 90 1010.5
20260503010409 8 87 0.0 0.0 0.03 0.61 0.61 90 1010.5
20260503005410 8 87 0.0 0.0 0.00 0.58 0.61 90 1010.5
20260503004409 8 87 0.0 0.0 0.00 0.58 0.58 90 1010.5
20260503003355 8 87 0.0 0.0 0.00 0.58 0.58 90 1010.5
20260503002836 8 87 0.0 4.8 0.00 0.58 0.58 90 1010.3
20260503001354 9 119 0.0 0.0 0.00 0.58 0.58 90 1010.2
20260503000833 9 115 0.0 0.0 0.00 0.58 0.58 90 1010.2
20260502235354 9 161 0.0 0.0 0.00 0.58 0.58 90 1010.2
20260502234840 9 161 0.0 0.0 0.00 0.58 0.58 90 1010.2
20260502233348 9 161 0.0 0.0 0.00 0.58 0.58 90 1010.2
20260502232348 9 161 0.0 0.0 0.00 0.58 0.58 90 1010.0
20260502231348 10 161 0.0 0.0 0.00 0.58 0.58 90 1009.8
20260502230833 10 161 0.0 0.0 0.00 0.58 0.58 90 1009.8
20260502225349 10 161 0.0 0.0 0.00 0.58 0.58 90 1009.7
20260502224346 9 161 0.0 0.0 0.00 0.58 0.58 90 1009.7
20260502223827 9 161 0.0 0.0 0.00 0.58 0.58 90 1009.7
20260502222348 9 161 0.0 0.0 0.00 0.58 0.58 89 1009.5
20260502221346 9 161 0.0 0.0 0.03 0.58 0.58 89 1009.5
20260502221300 9 161 1.6 6.4 0.05 0.58 0.58 89 1009.5
20260502215346 9 191 0.0 4.8 0.05 0.58 0.58 89 1009.7
20260502214344 9 193 0.0 1.6 0.10 0.58 0.58 88 1009.7
20260502213345 9 193 0.0 3.2 0.10 0.58 0.58 87 1009.7
20260502212344 9 193 0.0 3.2 0.10 0.58 0.58 86 1009.8
20260502211344 10 193 0.0 1.6 0.08 0.56 0.56 85 1009.9
20260502210344 10 193 0.0 4.8 0.05 0.53 0.53 84 1009.9
20260502205345 10 193 0.0 6.4 0.05 0.53 0.53 83 1009.7
20260502204342 10 192 0.0 0.0 0.00 0.48 0.48 81 1009.7
20260502203343 10 192 0.0 3.2 0.00 0.48 0.48 79 1009.7
20260502202341 10 192 0.0 3.2 0.00 0.48 0.48 79 1009.7
20260502201340 11 192 0.0 1.6 0.00 0.48 0.48 78 1009.7
20260502200338 11 192 0.0 3.2 0.00 0.48 0.48 77 1009.7
20260502195337 11 192 1.6 8.0 0.00 0.48 0.48 76 1009.8
20260502194338 11 281 1.6 4.8 0.00 0.48 0.48 75 1009.9
20260502193337 12 282 3.2 6.4 0.00 0.48 0.48 74 1009.9
20260502192337 12 316 1.6 4.8 0.00 0.48 0.48 73 1009.9
20260502191338 12 170 1.6 6.4 0.00 0.48 0.48 69 1009.7
20260502190812 12 191 4.8 9.7 0.00 0.48 0.48 65 1009.7
20260502185326 12 143 6.4 14.5 0.00 0.48 0.48 66 1009.8